Location: Gleizolles
(44.4833°N, 6.7667°E)
Time: 16:15:40
(UTC+00:00)

Transit 2A - Pass Details

Date: 25 June 2024
Orbit: 591 x 960 km, 66.7° (Epoch: 16 July)

Event Time Altitude Azimuth Distance (km) Brightness Sun altitude
Rises 22:15:24 0° 329° (NNW) 3,534 10.9 -19.7°
Reaches altitude 10° 22:17:53 10° 331° (NNW) 2,627 9.9 -19.9°
Maximum altitude 22:24:05 72° 56° (NE) 1,004 6.6 -20.2°
Enters shadow 22:27:12 32° 133° (SE) 1,588 7.1 -20.4°
